Regional Weather Roundup
Issued by NWS

Home | Current Version | Previous Version | Graphics & Text | Print | Product List | Glossary On
Versions: 1 2 3 4 5 6 7 8 9 10 11 12 13 14 15 16 17 18 19 20 21 22 23 24 25 26 27 28 29 30 31 32 33 34 35 36 37 38 39 40 41 42 43 44 45 46 47 48 49 50
000
ASUS43 KBIS 120210
RWRND

NORTH DAKOTA REGIONAL WEATHER ROUNDUP
NATIONAL WEATHER SERVICE BISMARCK ND
900 PM CDT FRI JUL 11 2014

NOTE: "FAIR" INDICATES FEW OR NO CLOUDS BELOW 12,000 FEET WITH NO
SIGNIFICANT WEATHER AND/OR OBSTRUCTIONS TO VISIBILITY.


NDZ001>003-009>011-017-120300-
NORTHWEST NORTH DAKOTA

CITY           SKY/WX    TMP DP  RH WIND       PRES   REMARKS
WILLISTON      MOCLDY    75  49  39 N8        30.10R
MINOT          CLEAR     69  54  58 W8        30.06R
MINOT AFB      CLEAR     70  57  63 NW8       30.06R
$$

NDZ018>021-031>035-040>046-120300-
SOUTHWEST NORTH DAKOTA

CITY           SKY/WX    TMP DP  RH WIND       PRES   REMARKS
BISMARCK       PTCLDY    77  57  50 N9        30.07R
DICKINSON      CLOUDY    71  58  63 NE3       30.11R
GARRISON         N/A     70  60  70 N5        30.08R
HETTINGER ARPT CLOUDY    70  61  73 NE8       30.11R
$$

NDZ004>008-012>016-024-026-027-054-120300-
NORTHEAST NORTH DAKOTA

CITY           SKY/WX    TMP DP  RH WIND       PRES   REMARKS
GRAND FORKS    CLEAR     72  59  63 NW6       29.96R
GRND FRKS AFB  CLEAR     73  58  58 NW8       29.99R
DEVILS LAKE    CLEAR     72  55  56 W9        30.02R
$$

NDZ022-023-025-028>030-036>039-047>053-120300-
SOUTHEAST NORTH DAKOTA

CITY           SKY/WX    TMP DP  RH WIND       PRES   REMARKS
FARGO          CLEAR     78  57  48 NW8       29.97R
JAMESTOWN      CLEAR     73  57  57 NW8       30.03R
$$



USA.gov is the U.S. government's official web portal to all federal, state and local government web resources and services.